Waarnemingen

Advertentie
Mijn weer
Deelen, Nederland (6275): temperatuur & dauwpunt: 13.11.2017 18:00:00 - 19.11.2017 18:00:00 (CET)Deelen, Nederland (6275): temperatuur 5cm: 13.11.2017 18:00:00 - 19.11.2017 18:00:00 (CET)Deelen, Nederland (6275): windsnelheid & windstoten: 13.11.2017 18:00:00 - 19.11.2017 18:00:00 (CET)Deelen, Nederland (6275): windrichting: 13.11.2017 18:00:00 - 19.11.2017 18:00:00 (CET)Deelen, Nederland (6275): luchtdruk: 13.11.2017 18:00:00 - 19.11.2017 18:00:00 (CET)Deelen, Nederland (6275): zicht: 13.11.2017 18:00:00 - 19.11.2017 18:00:00 (CET)Deelen, Nederland (6275): neerslag: 13.11.2017 18:00:00 - 19.11.2017 18:00:00 (CET)
Datum & Tijd tt [°C] td [°C] tt 5cm [°C] ff [km/u] ff [kn] fx [km/u] fx [kn] dd ppp [hPa] vv [km] rr [mm]
19.11.2017 18:00:00 3,7 2,7 2,1 9 5 18 10 WZW 1019,0 10 0,0
19.11.2017 17:00:00 4,9 3,2 3,7 11 6 22 12 W 1018,5 10 0,0
19.11.2017 16:00:00 6,5 4,4 6,0 13 7 - - WNW 1018,2 10 0,1
19.11.2017 15:00:00 8,1 4,6 7,6 16 9 40 21 WNW 1017,7 10 0,0
19.11.2017 14:00:00 8,1 4,0 8,1 21 11 36 19 WNW 1017,5 10 0,0
19.11.2017 13:00:00 7,1 4,2 6,5 16 9 - - NW 1017,3 10 0,5
19.11.2017 12:00:00 8,0 4,5 7,5 24 13 40 21 WNW 1017,0 10 0,0
19.11.2017 11:00:00 7,1 4,3 7,2 16 9 32 18 WNW 1016,7 10 0,0
19.11.2017 10:00:00 5,5 3,7 5,1 13 7 - - W 1016,2 10 0,0
19.11.2017 09:00:00 4,1 2,3 3,1 11 6 29 16 W 1016,2 10 0,0
19.11.2017 08:00:00 3,3 2,4 1,2 11 6 29 16 W 1015,5 10 0,0
19.11.2017 07:00:00 3,1 2,6 2,2 13 7 - - ZW 1015,2 10 0,1
19.11.2017 06:00:00 4,2 3,0 2,4 11 6 25 14 W 1015,1 10 0,3
19.11.2017 05:00:00 2,3 1,5 0,8 11 6 22 12 WZW 1014,9 10 0,0
19.11.2017 04:00:00 2,0 1,4 0,5 9 5 - - WZW 1014,8 10 0,0
19.11.2017 03:00:00 2,4 1,9 1,3 13 7 18 10 WZW 1014,7 10 0,0
19.11.2017 02:00:00 3,7 2,9 2,8 8 4 14 8 WZW 1014,9 10 0,0
19.11.2017 01:00:00 4,3 3,2 3,8 8 4 - - W 1015,0 10 0,0
19.11.2017 00:00:00 4,5 3,3 4,0 13 7 22 12 WZW 1014,9 10 0,5
18.11.2017 23:00:00 3,4 3,0 1,9 8 4 14 8 ZW 1015,5 8 0,2
18.11.2017 22:00:00 4,7 4,1 4,2 8 4 - - WZW 1015,5 10 0,1
18.11.2017 21:00:00 4,9 4,3 4,5 5 3 14 8 W 1015,7 10 0,0
18.11.2017 20:00:00 4,6 4,1 4,0 11 6 18 10 WZW 1015,7 10 0,0
18.11.2017 19:00:00 5,1 3,9 4,8 13 7 - - W 1016,0 10 0,1
18.11.2017 18:00:00 5,6 3,9 5,1 13 7 32 18 WNW 1016,2 10 0,3
18.11.2017 17:00:00 5,8 5,1 5,5 13 7 22 12 W 1016,1 10 0,9
18.11.2017 16:00:00 6,0 5,3 5,8 15 8 - - WNW 1016,4 9 1,7
18.11.2017 15:00:00 8,7 5,6 8,9 24 13 36 19 W 1015,8 10 0,0
18.11.2017 14:00:00 7,5 6,3 7,6 18 10 47 25 WZW 1016,2 10 0,1
18.11.2017 13:00:00 6,6 5,4 6,5 28 15 - - WZW 1016,9 4,6 0,6
18.11.2017 12:00:00 6,8 4,4 6,6 29 16 47 25 ZW 1017,3 10 0,0
18.11.2017 11:00:00 6,6 3,6 6,4 24 13 40 21 ZW 1018,1 10 0,0
18.11.2017 10:00:00 5,9 3,1 5,6 22 12 - - ZW 1018,5 10 0,0
18.11.2017 09:00:00 5,8 3,0 5,4 21 11 32 18 ZW 1019,4 10 0,0
18.11.2017 08:00:00 5,7 2,9 5,3 18 10 25 14 ZW 1019,7 10 0,0
18.11.2017 07:00:00 5,6 3,0 5,1 15 8 - - ZW 1020,1 10 0,0
18.11.2017 06:00:00 5,7 2,8 5,2 15 8 22 12 ZW 1020,6 10 0,0
18.11.2017 05:00:00 5,5 2,7 5,0 15 8 22 12 ZW 1021,1 10 0,0
18.11.2017 04:00:00 5,4 2,8 4,9 13 7 - - ZW 1021,9 10 0,0
18.11.2017 03:00:00 5,5 2,7 4,8 15 8 22 12 ZW 1022,7 10 0,0
18.11.2017 02:00:00 4,8 3,0 4,3 11 6 18 10 ZW 1023,4 10 0,0
18.11.2017 01:00:00 4,5 2,9 4,0 13 7 - - ZW 1024,2 10 0,0
18.11.2017 00:00:00 4,3 2,6 2,6 13 7 18 10 ZW 1024,5 10 0,0
17.11.2017 23:00:00 3,2 1,9 1,1 9 5 11 6 ZZW 1025,0 10 0,0
17.11.2017 22:00:00 1,3 0,9 -1,2 4 2 - - - 1025,4 9 0,0
17.11.2017 21:00:00 2,0 1,6 0,0 4 2 7 4 - 1025,8 10 0,0
17.11.2017 20:00:00 2,8 2,4 0,6 4 2 7 4 W 1026,0 10 0,0
17.11.2017 19:00:00 3,2 2,5 1,1 4 2 - - - 1026,3 10 0,0
17.11.2017 18:00:00 4,8 3,5 2,6 5 3 11 6 WZW 1026,4 10 0,0
17.11.2017 17:00:00 5,4 3,3 3,8 5 3 7 4 WZW 1026,4 10 0,0
17.11.2017 16:00:00 7,9 4,4 7,6 5 3 - - ZW 1026,5 10 0,0
17.11.2017 15:00:00 8,3 3,7 8,4 8 4 11 6 WZW 1026,8 10 0,0
17.11.2017 14:00:00 9,5 3,7 10,6 8 4 14 8 W 1027,3 10 0,0
17.11.2017 13:00:00 9,5 4,2 10,8 9 5 - - W 1027,4 10 0,0
17.11.2017 12:00:00 9,0 5,6 10,1 5 3 7 4 WZW 1027,7 10 0,0
17.11.2017 11:00:00 5,8 4,9 7,6 0 0 7 4 N 1028,0 10 0,0
17.11.2017 10:00:00 3,0 2,6 3,0 0 0 - - N 1027,8 0,9 0,0
17.11.2017 09:00:00 0,3 0,2 -1,1 2 1 4 2 - 1028,0 0,3 0,0
17.11.2017 08:00:00 -0,4 -0,6 -1,5 2 1 4 2 NNW 1027,5 0,5 0,0
17.11.2017 07:00:00 -0,3 -0,5 -1,6 0 0 - - N 1027,0 0,2 0,0
17.11.2017 06:00:00 0,9 0,7 -0,7 0 0 4 2 N 1026,6 0,5 0,0
17.11.2017 05:00:00 2,0 1,8 0,7 2 1 4 2 NNW 1026,1 0,4 0,0
17.11.2017 04:00:00 3,6 3,4 2,3 4 2 - - NNW 1025,8 0,5 0,0
17.11.2017 03:00:00 5,6 5,4 5,4 5 3 11 6 NNW 1025,5 0,3 0,0
17.11.2017 02:00:00 7,0 6,8 6,9 8 4 11 6 NW 1024,9 0,6 0,0
17.11.2017 01:00:00 7,5 7,3 7,0 5 3 - - NW 1024,4 8 0,0
17.11.2017 00:00:00 8,0 7,8 7,7 9 5 18 10 NNW 1024,2 10 0,5
16.11.2017 23:00:00 8,5 7,9 8,3 18 10 32 18 NNW 1023,7 6 0,0
16.11.2017 22:00:00 9,5 9,3 9,2 11 6 - - ZW 1023,0 2,4 0,0
16.11.2017 21:00:00 9,5 9,4 9,3 13 7 22 12 ZW 1022,6 2,5 0,0
16.11.2017 20:00:00 9,5 9,4 9,3 13 7 18 10 ZW 1022,5 2,1 0,0
16.11.2017 19:00:00 9,2 9,0 9,1 9 5 - - ZZW 1022,1 1,2 0,0
16.11.2017 18:00:00 9,1 8,9 8,9 11 6 18 10 ZW 1022,1 1,1 0,0
16.11.2017 17:00:00 8,9 8,8 8,9 13 7 22 12 ZZW 1021,7 1,2 0,0
16.11.2017 16:00:00 8,9 8,8 8,9 15 8 - - ZZW 1021,7 1,5 0,0
16.11.2017 15:00:00 8,9 8,8 8,9 16 9 25 14 ZW 1021,9 2,3 0,0
16.11.2017 14:00:00 8,9 8,7 8,9 16 9 25 14 ZZW 1022,2 2,4 0,0
16.11.2017 13:00:00 8,8 8,5 8,9 15 8 - - Z 1022,3 5 0,3
16.11.2017 12:00:00 8,8 8,6 8,9 13 7 25 14 ZZW 1022,8 2,3 0,6
16.11.2017 11:00:00 8,7 8,4 8,8 15 8 22 12 Z 1023,1 2,9 0,1
16.11.2017 10:00:00 8,8 8,1 8,8 15 8 - - Z 1023,0 5 0,0
16.11.2017 09:00:00 8,7 8,3 8,5 13 7 22 12 Z 1023,2 3,4 0,0
16.11.2017 08:00:00 8,6 8,4 8,4 11 6 25 14 ZZW 1023,0 3,1 0,0
16.11.2017 07:00:00 8,6 8,4 8,4 15 8 - - Z 1022,4 2,7 0,0
16.11.2017 06:00:00 8,6 8,4 8,5 13 7 22 12 ZZW 1022,5 2,3 0,0
16.11.2017 05:00:00 8,8 8,6 8,7 11 6 18 10 Z 1023,0 2,0 0,0
16.11.2017 04:00:00 8,9 8,7 8,8 13 7 - - ZZW 1023,4 2,4 0,0
16.11.2017 03:00:00 8,9 8,7 8,8 11 6 18 10 ZZW 1023,7 2,5 0,0
16.11.2017 02:00:00 8,9 8,8 8,8 9 5 18 10 Z 1023,8 2,4 0,0
16.11.2017 01:00:00 8,9 8,7 8,8 13 7 - - Z 1024,0 1,0 0,0
16.11.2017 00:00:00 8,9 8,8 8,8 9 5 14 8 Z 1024,5 1,6 0,0
15.11.2017 23:00:00 8,8 8,7 8,7 5 3 14 8 Z 1024,8 2,0 0,0
15.11.2017 22:00:00 8,8 8,6 8,7 11 6 - - Z 1024,9 2,4 0,0
15.11.2017 21:00:00 8,9 8,7 8,7 11 6 18 10 Z 1024,9 2,8 0,0
15.11.2017 20:00:00 8,9 8,7 8,8 8 4 14 8 ZZW 1024,9 3,3 0,0
15.11.2017 19:00:00 8,9 8,7 8,8 8 4 - - Z 1025,1 2,7 0,0
15.11.2017 18:00:00 8,9 8,7 8,8 8 4 11 6 Z 1025,2 2,8 0,0
15.11.2017 17:00:00 9,0 8,7 8,8 8 4 14 8 Z 1025,2 2,6 0,0
15.11.2017 16:00:00 9,0 8,9 9,0 9 5 - - Z 1025,2 2,7 0,0
15.11.2017 15:00:00 9,0 8,8 9,1 9 5 14 8 Z 1025,1 2,3 0,0
15.11.2017 14:00:00 8,8 8,7 9,1 9 5 14 8 Z 1025,0 2,1 0,0
15.11.2017 13:00:00 8,7 8,6 8,9 9 5 - - ZZW 1025,3 2,1 0,0
15.11.2017 12:00:00 8,3 8,1 8,4 11 6 18 10 Z 1025,5 1,9 0,0
15.11.2017 11:00:00 8,1 7,9 8,2 11 6 18 10 Z 1025,7 2,0 0,0
15.11.2017 10:00:00 8,0 7,9 8,1 9 5 - - Z 1025,3 2,9 0,1
15.11.2017 09:00:00 7,9 7,7 7,8 9 5 18 10 Z 1025,3 2,6 0,1
15.11.2017 08:00:00 7,8 7,6 7,7 11 6 14 8 ZZW 1025,0 1,3 0,0
15.11.2017 07:00:00 7,8 7,6 7,7 11 6 - - ZZW 1024,6 2,1 0,0
15.11.2017 06:00:00 7,8 7,7 7,7 13 7 18 10 ZZW 1024,4 2,4 0,0
15.11.2017 05:00:00 7,8 7,6 7,7 13 7 18 10 ZZW 1024,1 2,5 0,0
15.11.2017 04:00:00 7,8 7,6 7,7 13 7 - - ZZW 1024,1 2,9 0,0
15.11.2017 03:00:00 7,9 7,7 7,7 13 7 22 12 ZW 1024,4 3,3 0,0
15.11.2017 02:00:00 8,0 7,6 7,8 13 7 22 12 ZZW 1024,5 3,9 0,0
15.11.2017 01:00:00 8,2 8,0 7,9 13 7 - - ZW 1024,4 2,8 0,0
15.11.2017 00:00:00 7,9 7,7 7,7 15 8 22 12 ZW 1024,2 3,4 0,0
14.11.2017 23:00:00 7,8 7,7 7,7 11 6 22 12 ZZW 1024,2 3,6 0,0
14.11.2017 22:00:00 7,9 7,7 7,7 15 8 - - ZW 1024,1 2,9 0,0
14.11.2017 21:00:00 7,9 7,7 7,7 15 8 22 12 ZW 1023,8 2,6 0,0
14.11.2017 20:00:00 7,8 7,7 7,6 16 9 22 12 ZW 1023,7 2,5 0,0
14.11.2017 19:00:00 7,6 7,5 7,4 15 8 - - ZW 1023,4 1,9 0,1
14.11.2017 18:00:00 7,5 7,4 7,3 16 9 25 14 ZZW 1023,0 2,1 0,0
14.11.2017 17:00:00 7,5 7,1 7,3 16 9 25 14 ZW 1022,7 5 0,0
14.11.2017 16:00:00 7,5 7,0 7,3 15 8 - - ZW 1022,8 2,6 0,1
14.11.2017 15:00:00 7,9 6,0 7,7 21 11 36 19 ZW 1022,7 10 0,0
14.11.2017 14:00:00 8,2 5,2 8,0 24 13 40 21 ZW 1022,6 10 0,0
14.11.2017 13:00:00 7,8 4,5 7,6 22 12 - - ZW 1022,7 10 0,0
14.11.2017 12:00:00 7,4 4,2 7,4 22 12 36 19 ZW 1022,9 10 0,0
14.11.2017 11:00:00 7,2 4,6 7,0 26 14 40 21 ZW 1023,3 10 0,0
14.11.2017 10:00:00 6,3 4,5 5,6 24 13 - - ZZW 1022,7 10 0,0
14.11.2017 09:00:00 5,4 4,2 4,8 16 9 25 14 ZW 1022,8 10 0,0
14.11.2017 08:00:00 4,5 3,8 3,8 15 8 22 12 ZZW 1022,8 10 0,0
14.11.2017 07:00:00 3,6 3,3 2,6 11 6 - - ZZW 1022,9 10 0,0
14.11.2017 06:00:00 2,5 2,3 1,5 11 6 14 8 ZZW 1022,5 10 0,0
14.11.2017 05:00:00 1,8 1,6 0,0 4 2 7 4 - 1022,8 10 0,0
14.11.2017 04:00:00 1,3 1,1 -0,7 2 1 - - - 1023,0 10 0,0
14.11.2017 03:00:00 -0,2 -0,5 -1,5 4 2 7 4 - 1023,2 10 0,0
14.11.2017 02:00:00 0,3 0,0 -2,4 2 1 7 4 Z 1023,2 7 0,0
14.11.2017 01:00:00 -0,9 -1,1 -1,9 5 3 - - OZO 1023,3 9 0,0
14.11.2017 00:00:00 0,1 -0,2 -2,2 2 1 7 4 OZO 1023,2 4,8 0,0
13.11.2017 23:00:00 -0,2 -0,5 -2,6 2 1 4 2 N 1023,2 10 0,0
13.11.2017 22:00:00 0,6 0,4 -1,6 2 1 - - - 1023,0 10 0,0
13.11.2017 21:00:00 1,9 1,6 -0,8 5 3 7 4 W 1022,6 10 0,0
13.11.2017 20:00:00 2,0 1,6 -0,2 2 1 7 4 W 1022,3 10 0,0
13.11.2017 19:00:00 4,4 3,4 1,9 8 4 - - W 1022,0 10 0,0
13.11.2017 18:00:00 5,6 3,9 3,9 9 5 14 8 NW 1021,2 10 0,0

tt = temperatuur
td = dauwpunt
tt 5cm = temperatuur 5cm
ff = windsnelheid
fx = windstoten
dd = windrichting
ppp = luchtdruk
vv = zicht
rr = neerslag

Weerstations in de omgeving